timestamp,surface_pressure_avg,surface_temp_avg,battery_voltage,lat,long
2024-04-15 00:09:00+00:00,232.3814,2.3,12.01,47.84626,-54.09684
2024-04-15 00:19:00+00:00,233.0081,2.3,12.01,47.84626,-54.09684
2024-04-15 00:29:00+00:00,231.2864,2.2,12.01,47.84626,-54.09684
2024-04-15 00:39:00+00:00,237.5064,2.2,12.01,47.84626,-54.09684
2024-04-15 00:49:00+00:00,243.5081,2.2,12.01,47.84626,-54.09684
2024-04-15 00:59:00+00:00,251.3848,2.2,12.01,47.84626,-54.09684
2024-04-15 01:09:00+00:00,251.9881,2.2,12.01,47.84626,-54.09684
2024-04-15 01:19:00+00:00,254.7014,2.25,12.01,47.84626,-54.09684
2024-04-15 01:29:00+00:00,264.498,2.2,12.01,47.84626,-54.09684
2024-04-15 01:39:00+00:00,275.6097,2.17,12.01,47.84626,-54.09684
2024-04-15 01:49:00+00:00,279.9947,2.2,12.01,47.84626,-54.09684
2024-04-15 01:59:00+00:00,285.7081,2.2,12.01,47.84626,-54.09684
2024-04-15 02:09:00+00:00,298.223,2.2,12.01,47.84626,-54.09684
2024-04-15 02:19:00+00:00,306.493,2.24,12.01,47.84626,-54.09684
2024-04-15 02:29:00+00:00,306.5147,2.32,12.01,47.84626,-54.09684
2024-04-15 02:39:00+00:00,313.46299999999997,2.3,12.01,47.84626,-54.09684
2024-04-15 02:49:00+00:00,319.2596,2.2,12.01,47.84626,-54.09684
2024-04-15 02:59:00+00:00,322.603,2.19,12.01,47.84626,-54.09684
2024-04-15 03:09:00+00:00,325.5397,2.2,12.01,47.84626,-54.09684
2024-04-15 03:19:00+00:00,328.5964,2.17,12.01,47.84626,-54.09684
2024-04-15 03:29:00+00:00,327.8829,2.1,12.01,47.84626,-54.09684
2024-04-15 03:39:00+00:00,328.9896,2.1,12.01,47.84626,-54.09684
2024-04-15 03:49:00+00:00,331.5113,2.0,12.01,47.84626,-54.09684
2024-04-15 03:59:00+00:00,327.483,2.0,12.01,47.84626,-54.09684
2024-04-15 04:09:00+00:00,328.1512,2.0,12.01,47.84626,-54.09684
2024-04-15 04:19:00+00:00,334.6547,2.0,12.01,47.84626,-54.09684
2024-04-15 04:29:00+00:00,333.5797,1.99,12.01,47.84626,-54.09684
2024-04-15 04:39:00+00:00,327.8513,1.99,12.01,47.84626,-54.09684
2024-04-15 04:49:00+00:00,326.7596,2.0,12.01,47.84626,-54.09684
2024-04-15 04:59:00+00:00,329.0946,2.0,12.01,47.84626,-54.09684
2024-04-15 05:09:00+00:00,327.973,2.0,12.01,47.84626,-54.09684
2024-04-15 05:19:00+00:00,325.2413,2.0,12.01,47.84626,-54.09684
2024-04-15 05:29:00+00:00,321.2763,2.0,12.01,47.84626,-54.09684
2024-04-15 05:39:00+00:00,321.4614,2.0,12.01,47.84626,-54.09684
2024-04-15 05:49:00+00:00,313.3047,2.0,12.01,47.84626,-54.09684
2024-04-15 05:59:00+00:00,311.153,2.0,12.01,47.84626,-54.09684
2024-04-15 06:09:00+00:00,311.5563,2.02,12.01,47.84626,-54.09684
2024-04-15 06:19:00+00:00,304.8864,2.07,12.01,47.84626,-54.09684
2024-04-15 06:29:00+00:00,302.9731,2.1,12.01,47.84626,-54.09684
2024-04-15 06:39:00+00:00,303.5831,2.1,12.01,47.84626,-54.09684
2024-04-15 06:49:00+00:00,303.728,2.1,12.01,47.84626,-54.09684
2024-04-15 06:59:00+00:00,293.5663,2.1,12.01,47.84626,-54.09684
2024-04-15 07:09:00+00:00,292.0013,2.1,12.01,47.84626,-54.09684
2024-04-15 07:19:00+00:00,289.5547,2.1,12.01,47.84626,-54.09684
2024-04-15 07:29:00+00:00,281.0797,2.19,12.01,47.84626,-54.09684
2024-04-15 07:39:00+00:00,272.548,2.32,12.01,47.84626,-54.09684
2024-04-15 07:49:00+00:00,272.0214,2.38,12.01,47.84626,-54.09684
2024-04-15 07:59:00+00:00,265.7164,2.4,12.01,47.84626,-54.09684
2024-04-15 08:09:00+00:00,255.9081,2.49,12.01,47.84626,-54.09684
2024-04-15 08:19:00+00:00,253.4581,2.5,12.01,47.84626,-54.09684
2024-04-15 08:29:00+00:00,254.9864,2.5,12.01,47.84626,-54.09684
2024-04-15 08:39:00+00:00,245.3264,2.5,12.01,47.84626,-54.09684
2024-04-15 08:49:00+00:00,236.3997,2.5,12.01,47.84626,-54.09684
2024-04-15 08:59:00+00:00,235.5631,2.5,12.01,47.84626,-54.09684
2024-04-15 09:09:00+00:00,233.9848,2.5,12.01,47.84626,-54.09684
2024-04-15 09:19:00+00:00,227.8698,2.49,12.01,47.84626,-54.09684
2024-04-15 09:29:00+00:00,223.6914,2.49,12.01,47.84626,-54.09684
2024-04-15 09:39:00+00:00,221.1198,2.48,12.01,47.84626,-54.09684
2024-04-15 09:49:00+00:00,222.8314,2.45,12.01,47.84626,-54.09684
2024-04-15 09:59:00+00:00,221.8864,2.44,12.01,47.84626,-54.09684
2024-04-15 10:09:00+00:00,218.868,2.42,12.01,47.84626,-54.09684
2024-04-15 10:19:00+00:00,220.3831,2.4,12.01,47.84626,-54.09684
2024-04-15 10:29:00+00:00,221.5465,2.4,12.01,47.84626,-54.09684
2024-04-15 10:39:00+00:00,217.9431,2.4,12.01,47.84626,-54.09684
2024-04-15 10:49:00+00:00,218.6397,2.4,12.01,47.84626,-54.09684
2024-04-15 10:59:00+00:00,227.4981,2.4,12.01,47.84626,-54.09684
2024-04-15 11:09:00+00:00,230.4781,2.4,12.01,47.84626,-54.09684
2024-04-15 11:19:00+00:00,231.3448,2.4,12.09,47.84626,-54.09684
2024-04-15 11:29:00+00:00,234.4398,2.39,12.09,47.84626,-54.09684
2024-04-15 11:39:00+00:00,232.3148,2.3,12.09,47.84626,-54.09684
2024-04-15 11:49:00+00:00,226.4282,2.3,12.09,47.84626,-54.09684
2024-04-15 11:59:00+00:00,227.0881,2.3,12.09,47.84626,-54.09684
2024-04-15 12:09:00+00:00,229.7247,2.29,12.09,47.84626,-54.09684
2024-04-15 12:19:00+00:00,231.9864,2.29,12.41,47.84626,-54.09684
2024-04-15 12:29:00+00:00,230.5064,2.28,12.41,47.84626,-54.09684
2024-04-15 12:39:00+00:00,231.1465,2.26,12.41,47.84626,-54.09684
2024-04-15 12:49:00+00:00,231.7131,2.2,12.41,47.84626,-54.09684
2024-04-15 12:59:00+00:00,234.6348,2.2,12.41,47.84626,-54.09684
2024-04-15 13:09:00+00:00,237.8481,2.22,12.41,47.84626,-54.09684
2024-04-15 13:19:00+00:00,242.8531,2.43,12.41,47.84626,-54.09684
2024-04-15 13:29:00+00:00,245.5198,2.6,12.41,47.84626,-54.09684
2024-04-15 13:39:00+00:00,244.1348,2.56,12.41,47.84626,-54.09684
2024-04-15 13:49:00+00:00,243.7248,2.4,12.41,47.84626,-54.09684
2024-04-15 13:59:00+00:00,252.2331,2.49,12.41,47.84626,-54.09684
2024-04-15 14:09:00+00:00,261.1848,2.42,12.41,47.84626,-54.09684
2024-04-15 14:19:01+00:00,269.8714,2.52,12.41,47.84626,-54.09684
2024-04-15 14:29:01+00:00,270.1847,2.6,12.41,47.84626,-54.09684
2024-04-15 14:39:01+00:00,271.9265,2.6,12.41,47.84626,-54.09684
2024-04-15 14:49:01+00:00,274.428,2.7,12.41,47.84626,-54.09684
2024-04-15 14:59:01+00:00,282.408,2.7,12.41,47.84626,-54.09684
2024-04-15 15:09:01+00:00,284.4381,2.78,12.41,47.84626,-54.09684
2024-04-15 15:19:00+00:00,286.8163,2.8,12.49,47.84626,-54.09684
2024-04-15 15:29:00+00:00,289.2597,2.76,12.49,47.84626,-54.09684
2024-04-15 15:39:00+00:00,293.5947,2.73,12.49,47.84626,-54.09684
2024-04-15 15:49:00+00:00,293.283,2.7,12.49,47.84626,-54.09684
2024-04-15 15:59:00+00:00,295.043,2.7,12.49,47.84626,-54.09684
2024-04-15 16:09:00+00:00,295.5247,2.7,12.49,47.84626,-54.09684
2024-04-15 16:19:00+00:00,297.3414,2.7,12.41,47.84626,-54.09684
2024-04-15 16:29:00+00:00,297.3846,2.7,12.41,47.84626,-54.09684
2024-04-15 16:39:00+00:00,290.858,3.3,12.41,47.84626,-54.09684
2024-04-15 16:49:00+00:00,290.853,3.0,12.41,47.84626,-54.09684
2024-04-15 16:59:00+00:00,293.0313,3.14,12.41,47.84626,-54.09684
2024-04-15 17:09:00+00:00,292.303,3.19,12.41,47.84626,-54.09684
2024-04-15 17:19:00+00:00,291.4114,3.2,12.49,47.84626,-54.09684
2024-04-15 17:29:00+00:00,292.6497,3.07,12.49,47.84626,-54.09684
2024-04-15 17:39:00+00:00,295.8314,3.17,12.49,47.84626,-54.09684
2024-04-15 17:49:00+00:00,292.6747,3.1,12.49,47.84626,-54.09684
2024-04-15 17:59:00+00:00,296.1146,3.0,12.49,47.84626,-54.09684
2024-04-15 18:09:00+00:00,296.1747,2.9,12.49,47.84626,-54.09684
2024-04-15 18:19:00+00:00,297.1431,2.8,12.33,47.84626,-54.09684
2024-04-15 18:29:00+00:00,295.048,2.7,12.33,47.84626,-54.09684
2024-04-15 18:39:00+00:00,287.1847,2.7,12.33,47.84626,-54.09684
2024-04-15 18:49:00+00:00,283.5931,2.61,12.33,47.84626,-54.09684
2024-04-15 18:59:00+00:00,288.178,2.6,12.33,47.84626,-54.09684
2024-04-15 19:09:00+00:00,290.7864,2.6,12.33,47.84626,-54.09684
2024-04-15 19:19:00+00:00,281.4814,2.66,12.41,47.84626,-54.09684
2024-04-15 19:29:00+00:00,275.3464,2.8,12.41,47.84626,-54.09684
2024-04-15 19:39:00+00:00,276.5397,2.8,12.41,47.84626,-54.09684
2024-04-15 19:49:00+00:00,276.1564,2.73,12.41,47.84626,-54.09684
2024-04-15 19:59:00+00:00,267.5131,2.7,12.41,47.84626,-54.09684
2024-04-15 20:09:00+00:00,259.5581,2.7,12.41,47.84626,-54.09684
2024-04-15 20:19:00+00:00,257.8981,2.7,12.25,47.84626,-54.09684
2024-04-15 20:29:00+00:00,252.4647,2.89,12.25,47.84626,-54.09684
2024-04-15 20:39:00+00:00,244.0498,3.0,12.25,47.84626,-54.09684
2024-04-15 20:49:00+00:00,240.1414,3.03,12.25,47.84626,-54.09684
2024-04-15 20:59:00+00:00,239.4681,3.03,12.25,47.84626,-54.09684
2024-04-15 21:09:00+00:00,230.9348,3.19,12.25,47.84626,-54.09684
2024-04-15 21:19:00+00:00,226.7381,3.5,12.17,47.84626,-54.09684
2024-04-15 21:29:00+00:00,229.4231,3.3,12.17,47.84626,-54.09684
2024-04-15 21:39:00+00:00,230.2881,3.37,12.17,47.84626,-54.09684
2024-04-15 21:49:00+00:00,228.5215,3.5,12.17,47.84626,-54.09684
2024-04-15 21:59:00+00:00,229.7448,3.1,12.17,47.84626,-54.09684
2024-04-15 22:09:00+00:00,229.1631,3.0,12.17,47.84626,-54.09684
2024-04-15 22:19:00+00:00,228.6864,2.93,12.09,47.84626,-54.09684
2024-04-15 22:29:00+00:00,230.4081,3.0,12.09,47.84626,-54.09684
2024-04-15 22:39:00+00:00,230.1731,3.0,12.09,47.84626,-54.09684
2024-04-15 22:49:00+00:00,234.2848,2.82,12.09,47.84626,-54.09684
2024-04-15 22:59:00+00:00,236.7032,2.8,12.09,47.84626,-54.09684
2024-04-15 23:09:00+00:00,237.5331,2.7,12.09,47.84626,-54.09684
2024-04-15 23:19:00+00:00,242.3148,2.7,12.09,47.84626,-54.09684
2024-04-15 23:29:00+00:00,247.2248,2.7,12.09,47.84626,-54.09684
2024-04-15 23:39:00+00:00,247.3864,2.68,12.09,47.84626,-54.09684
2024-04-15 23:49:00+00:00,250.1031,2.63,12.09,47.84626,-54.09684
2024-04-15 23:59:00+00:00,255.8248,2.6,12.09,47.84626,-54.09684
